Regional Weather Roundup
Issued by NWS Upton, NY

Current Version | Previous Version | Text Only | Print | Product List | Glossary Off
Versions: 1 2 3 4 5 6 7 8 9 10 11 12 13 14 15 16 17 18 19 20 21 22 23 24 25 26 27 28 29 30 31 32 33 34 35 36 37 38 39 40 41 42 43 44 45 46 47 48 49 50
000 ASUS41 KOKX 280608 RWROKX REGIONAL WEATHER ROUNDUP NATIONAL WEATHER SERVICE NEW YORK NY 200 AM EDT TUE JUL 28 2015 NOTE: "FAIR" INDICATES FEW OR NO CLOUDS BELOW 12,000 FEET WITH NO SIGNIFICANT WEATHER AND/OR OBSTRUCTIONS TO VISIBILITY. NYZ071-072-176-178-NJZ106-104-280700- NEW YORK CITY METRO AREA CITY SKY/WX TMP DP RH WIND PRES REMARKS CENTRAL PARK CLEAR 77 67 71 MISG 30.04S LAGUARDIA APRT CLEAR 77 67 71 SW8 30.00F KENNEDY INTL PTCLDY 75 69 81 SW8 30.02F NEWARK/LIBERTY MOCLDY 76 68 76 SW8 30.01S BRNX BOT. GARD N/A 75 66 73 SW6 30.03S TETERBORO CLEAR 76 67 73 SW7 30.00S $$ NYZ177-179-078>081-280700- LONG ISLAND NEW YORK CITY SKY/WX TMP DP RH WIND PRES REMARKS FARMINGDALE CLEAR 75 70 84 SW5 30.02F ISLIP MOCLDY 74 71 91 SW7 30.00F SHIRLEY PTCLDY 74 70 87 S6 30.02F WESTHAMPTON CLEAR 72 70 93 SW5 30.03F MONTAUK POINT N/A 74 70 87 SW5 30.02F $$ NYZ052-065-067-280700- HUDSON VALLEY CITY SKY/WX TMP DP RH WIND PRES REMARKS WHITE PLAINS CLEAR 70 68 93 CALM 30.01F NEWBURGH CLEAR 70 68 94 CALM 30.03S MONTGOMERY CLEAR 66 65 96 CALM 30.02S POUGHKEEPSIE CLEAR 70 67 90 CALM 30.00S ALBANY PTCLDY 73 68 84 S5 30.01R $$ NJZ001-105-106-008-010-013-015-019>022-104-280700- NEW JERSEY CITY SKY/WX TMP DP RH WIND PRES REMARKS NEWARK/LIBERTY MOCLDY 76 68 76 SW8 30.01S TETERBORO CLEAR 76 67 73 SW7 30.00S CALDWELL CLEAR 73 68 84 CALM 30.02S MORRISTOWN FOG 70 66 88 CALM 30.02F VSB 3/4 SOMERVILLE CLEAR 70 67 90 CALM 30.00F FOG SUSSEX CLEAR 68 65 90 CALM 30.02F FOG ANDOVER N/A 67 67 100 CALM 30.03F TRENTON CLEAR 73 68 84 SW3 30.02S MILLVILLE PTCLDY 72 70 93 CALM 30.02S ATLANTIC CITY CLEAR 74 72 93 CALM 30.02F WRIGHTSTOWN CLEAR 69 68 99 CALM 30.00S TOMS RIVER CLEAR 70 68 94 CALM 30.02F BELMAR CLEAR 72 64 78 CALM 30.02F $$ PAZ047>061-062-071-280700- EASTERN PENNSYLVANIA CITY SKY/WX TMP DP RH WIND PRES REMARKS PHILADELPHIA MOCLDY 76 71 85 CALM 30.02S ALLENTOWN CLEAR 73 69 87 CALM 30.03S SCRANTON CLEAR 67 65 93 SE3 30.04F $$ CTZ002-004>006-009-010-012-RIZ004-006-007-MAZ004-011-015-280700- SOUTHERN NEW ENGLAND IN CT CITY SKY/WX TMP DP RH WIND PRES REMARKS BRADLEY INTL PTCLDY 71 67 87 CALM 30.00S HARTFORD CLEAR 72 69 90 S7 29.99F DANBURY CLEAR 69 64 84 CALM 30.03F WTRBRY/OXFORD CLEAR 72 63 73 CALM 30.04F BRIDGEPORT PTCLDY 75 71 87 SW5 30.00F MERIDEN CLEAR 69 66 90 CALM 30.01F NEW HAVEN PTCLDY 71 69 93 S3 30.01F CHESTER FAIR 72 70 94 SW6 30.03F GROTON MOCLDY 70 69 97 SW3 30.00F FOG WILLIMANTIC CLEAR 69 67 93 CALM 30.01F IN RI CITY SKY/WX TMP DP RH WIND PRES REMARKS PROVIDENCE CLOUDY 70 69 97 S7 30.01F FOG BLOCK ISLAND CLOUDY 72 72 100 SW9 30.03F VSB 1 WESTERLY MOCLDY 72 70 93 SW6 30.01F IN MA CITY SKY/WX TMP DP RH WIND PRES REMARKS BOSTON CLEAR 72 69 90 SW13 29.99S WORCESTER CLEAR 68 65 90 W10 30.03R WESTFIELD CLEAR 67 66 97 CALM 30.01R PROVINCETOWN CLEAR 70 63 78 S9 30.01S NANTUCKET PTCLDY 69 66 90 S8 30.03F $$ ANZ330-335-338-340-345-350-353-355-280700- COASTAL MARINE OBSERVATIONS STATION/POSITION TIME SKY/WX TEMP WIND PRES VSBY WAVE AIR SEA DIR/SP/G HT/PER (UTC) (F) (DEG/KT/KT) (MB) (MI) (FT/S) NY HARB ENTRANCE 0550 75 75 210/ 8/ 10 1016.1 2/11 4S FIRE IS NOT AVBL 20S FIRE ISLAND 0550 74 71 200/ 8/ 8 1016.3 2/11 GREAT SOUTH BAY 0500 75 80 220/ 10/ 12 N/A 23SW MTP 0550 74 74 220/ 6/ 8 1016.2 2/11 HUDSON CANYON NOT AVBL KINGS POINT 0500 76 71 200/ 6/ 6 1015.7 CENTRAL LI SOUND NOT AVBL EASTERN LI SOUND 0500 71 68 240/ 6/ 6 N/A ROBBINS REEF 0500 76 230/ 5/ 8 1015.3 $$ >>>>>>>>>>>>>>>>>>>>>>>>>>>> KEY <<<<<<<<<<<<<<<<<<<<<<<<<<< > < > SKY/WX - SKY CONDITION/PRESENT WEATHER < > TMP - TEMPERATURE IN FAHRENHEIT < > DP - DEWPOINT IN FAHRENHEIT < > RH - RELATIVE HUMIDITY IN PERCENT < > WIND - DIRECTION AND SPEED IN MPH < > PRES - MEAN SEA LEVEL PRESSURE IN INCHES OF HG < > WCI - WIND CHILL INDEX < > VSB - VISIBILITY IN MILES < > HX - HEAT INDEX < > TC - TEMPERATURE IN CELSIUS < > VRB - VARIABLE WIND DIRECTION < > < >>>>>>>>>>>>>>>>>>>>>>>>>>>> KEY <<<<<<<<<<<<<<<<<<<<<<<<<<<

USA.gov is the U.S. government's official web portal to all federal, state and local government web resources and services.